Retour au catalogue

FENGYUN 1C DEB

ActifSSO
NORAD 29969·DEBRIS·🇨🇳 China

Lancé May 10, 1999 depuis Taiyuan Satellite Launch Center

Loading…

Prochains Passages (prochaines 24 heures)

TLE

FraisSource: Space-Track

Époque: Sep 14, 2026, 05:48 UTC

1 29969U 99025KT  26257.24203615  .00002122  00000-0  74783-3 0  9994
2 29969  98.7652 350.5057 0040541 317.1920  69.0257 14.35426036 15937

Suivez FENGYUN 1C DEB en temps réel avec AllMySat

Download on the App Store